"Time","Temp","Dewpoint","Humidity","Pressure","Direction","Speed","Gust","Precip","PrecipRate"
"00:04:57","63.8","58.5","83","30.04","24","0","0","0.00","0.00"
"00:09:59","63.7","58.5","83.3","30.04","24","0","0","0.00","0.00"
"00:14:56","63.6","58.7","84","30.04","24","0","0","0.00","0.00"
"00:19:59","63.4","58.5","84","30.03","24","0","0","0.00","0.00"
"00:24:59","63.3","58.5","84.2","30.03","24","0","0","0.00","0.00"
"00:29:59","63.1","58.5","85","30.03","24","0","0","0.00","0.00"
"00:34:56","63","58.4","85","30.03","24","0","0","0.00","0.00"
"00:39:56","62.8","58.2","85","30.03","24","0","0","0.00","0.00"
"00:44:56","62.7","58.5","86","30.03","24","0","0","0.00","0.00"
"00:49:57","62.5","58.3","86","30.03","24","0","0","0.00","0.00"
"00:54:57","62.4","58.2","86","30.03","24","0","0","0.00","0.00"
"00:59:57","62.3","58.1","86","30.03","24","0","0","0.00","0.00"
"01:04:57","62.2","58.2","86.7","30.03","24","0","0","0.00","0.00"
"01:09:57","62","58.1","87","30.03","24","0","0","0.00","0.00"
"01:14:57","61.9","58.2","87.7","30.03","24","0","0","0.00","0.00"
"01:19:56","61.7","58.1","88","30.02","24","0","0","0.00","0.00"
"01:24:58","61.7","58.1","88.3","30.02","24","0","0","0.00","0.00"
"01:29:59","61.5","58.2","89","30.02","24","0","0","0.00","0.00"
"01:34:56","61.5","58.2","89","30.02","24","0","0","0.00","0.00"
"01:39:57","61.4","58.1","89","30.02","24","0","0","0.00","0.00"
"01:44:57","61.4","58.1","89","30.02","24","0","0","0.00","0.00"
"01:49:56","61.3","58.1","89.1","30.02","24","0","0","0.00","0.00"
"01:54:59","61.3","58.3","90","30.02","24","0","0","0.00","0.00"
"01:59:58","61.3","58.3","90","30.02","24","0","0","0.00","0.00"
"02:04:59","61.4","58.4","90","30.02","24","0","0","0.00","0.00"
"02:09:59","61.4","58.4","90","30.02","24","0","0","0.00","0.00"
"02:14:59","61.4","58.5","90.2","30.02","24","0","0","0.00","0.00"
"02:19:58","61.5","58.7","90.7","30.01","24","0","0","0.00","0.00"
"02:24:57","61.8","58.8","90","30.01","24","0","0","0.00","0.00"
"02:29:56","62","59","90","30.02","24","0","0","0.00","0.00"
"02:34:59","62.2","59.2","90","30.02","24","0","0","0.00","0.00"
"02:39:59","62.4","59.2","89.4","30.02","24","0","0","0.00","0.00"
"02:44:58","62.5","59.2","89","30.02","24","0","0","0.00","0.00"
"02:49:57","62.6","59.3","89","30.01","24","0","0","0.00","0.00"
"02:54:56","62.6","59.4","89.1","30.01","24","0","0","0.00","0.00"
"02:59:59","62.7","59.7","90","30.01","24","0","0","0.00","0.00"
"03:04:58","62.7","59.7","89.9","30.01","24","0","0","0.00","0.00"
"03:09:57","62.8","59.6","89.3","30.01","24","0","0","0.00","0.00"
"03:14:57","62.9","59.6","89.1","30.01","24","0","0","0.00","0.00"
"03:19:56","63","60","90","30.01","24","0","0","0.00","0.00"
"03:24:59","63.1","60.1","90","30.01","24","0","0","0.00","0.00"
"03:29:58","63.1","60.1","90","30.01","24","0","0","0.00","0.00"
"03:34:58","63.1","60.1","90","30.01","24","0","0","0.00","0.00"
"03:39:58","63.1","60.1","90.1","30.01","24","0","0","0.00","0.00"
"03:44:58","63.2","60.5","91","30.01","24","0","0","0.00","0.00"
"03:49:59","63.2","60.5","91","30.01","24","0","0","0.00","0.00"
"03:54:59","63.3","60.6","91","30.01","24","0","0","0.00","0.00"
"03:59:58","63.4","60.7","91","30.01","24","0","0","0.00","0.00"
"04:04:58","63.4","60.7","91","30.01","24","0","0","0.00","0.00"
"04:09:57","63.4","60.9","91.6","30.01","24","0","0","0.00","0.00"
"04:14:57","63.4","61","92","30.01","24","0","0","0.00","0.00"
"04:19:56","63.4","61","92","30.01","24","0","0","0.00","0.00"
"04:24:59","63.3","60.9","92","30.01","24","0","0","0.00","0.00"
"04:29:58","63.2","61","92.5","30.01","24","0","0","0.00","0.00"
"04:34:57","63.2","61.1","93","30.01","24","0","0","0.00","0.00"
"04:39:57","63.2","61.1","93","30.01","24","0","0","0.00","0.00"
"04:44:57","63.2","61.1","93","30.01","24","0","0","0.00","0.00"
"04:49:56","63.3","61.3","93.6","30.00","24","0","0","0.00","0.00"
"04:54:59","63.4","61.6","94","30.00","24","0","0","0.00","0.00"
"04:59:58","63.5","61.7","94","30.00","24","0","0","0.00","0.00"
"05:04:58","63.6","61.8","94","30.00","24","0","0","0.00","0.00"
"05:09:57","63.7","61.9","94","30.00","24","0","0","0.00","0.00"
"05:14:57","63.7","61.9","94","30.01","24","0","0","0.00","0.00"
"05:19:55","63.7","61.9","94","30.01","24","0","0","0.00","0.00"
"05:24:59","63.7","61.9","94","30.01","24","0","0","0.00","0.00"
"05:29:58","63.7","61.9","94","30.01","24","0","0","0.00","0.00"
"05:34:56","63.8","62","94","30.01","24","0","0","0.00","0.00"
"05:39:56","63.9","62.1","94","30.01","24","0","0","0.00","0.00"
"05:44:56","64","62.2","94","30.02","23","0","0","0.00","0.00"
"05:49:59","64.2","62.7","95","30.02","90","0","0","0.00","0.00"
"05:54:59","64.3","62.8","95","30.02","90","0","0","0.00","0.00"
"05:59:58","64.5","63","95","30.02","90","0","0","0.00","0.00"
"06:04:58","64.5","63","95","30.02","90","0","0","0.00","0.00"
"06:09:56","64.5","63","95","30.02","90","0","0","0.00","0.00"
"06:14:59","64.5","63","95","30.02","75","1","3.6","0.00","0.00"
"06:19:58","64.5","63","95","30.02","61","0.9","2.4","0.00","0.00"
"06:24:58","64.4","62.9","95","30.02","61","0.7","2.4","0.00","0.00"
"06:29:57","64.3","63","95.6","30.03","343","0.3","1.2","0.00","0.00"
"06:34:59","64.3","63.1","96","30.03","277","0.8","2.4","0.00","0.00"
"06:39:59","64.2","63","95.9","30.03","277","0.1","2.3","0.00","0.00"
"06:44:57","64.2","62.8","95.3","30.03","277","0.1","1.2","0.00","0.00"
"06:49:56","64.2","62.7","95","30.03","277","0.6","2.4","0.00","0.00"
"06:54:56","64.1","62.6","95","30.03","277","0.3","1.2","0.00","0.00"
"06:59:59","64.2","62.7","95","30.03","277","0.2","1.2","0.00","0.00"
"07:04:58","64.3","62.8","95","30.03","277","0.3","1.2","0.00","0.00"
"07:09:58","64.4","63","95.2","30.03","277","0.4","2.4","0.00","0.00"
"07:14:58","64.7","63.2","95.2","30.03","274","0.3","2.3","0.00","0.00"
"07:19:56","64.8","63.3","95","30.03","274","0.1","1.2","0.00","0.00"
"07:24:56","65","63.5","95","30.03","274","0.3","2.4","0.00","0.00"
"07:29:59","65.3","63.8","95","30.04","274","0","1.2","0.00","0.00"
"07:34:57","65.6","64.1","95","30.04","274","0.4","2.4","0.00","0.00"
"07:39:58","65.9","64.4","94.7","30.04","274","0.1","2.3","0.00","0.00"
"07:44:57","66.2","64.4","94","30.04","274","0.5","2.4","0.00","0.00"
"07:49:55","66.4","64.6","94","30.04","76","0.6","2.4","0.00","0.00"
"07:54:59","66.5","64.7","94","30.04","76","0.3","1.2","0.00","0.00"
"07:59:59","66.6","64.8","94","30.04","76","0.5","2.4","0.00","0.00"
"08:04:59","66.7","64.8","93.7","30.04","75","0.6","2.4","0.00","0.00"
"08:09:58","66.8","64.7","93","30.04","75","0.3","2.4","0.00","0.00"
"08:14:59","66.9","64.8","93","30.05","55","0.3","2.4","0.00","0.00"
"08:19:58","67.1","64.8","92.4","30.05","281","0","1.2","0.00","0.00"
"08:24:58","67.2","64.9","92.2","30.05","281","0.1","1.2","0.00","0.00"
"08:29:57","67.4","64.9","91.6","30.05","281","1.2","3.6","0.00","0.00"
"08:34:56","67.5","64.9","91.1","30.05","281","0.3","3.5","0.00","0.00"
"08:39:56","67.7","65.1","91.3","30.05","329","1","3.6","0.00","0.00"
"08:44:56","67.7","65","91","30.05","347","0","2.3","0.00","0.00"
"08:49:59","67.7","65","91","30.05","347","0","1.2","0.00","0.00"
"08:54:58","67.7","64.9","90.9","30.05","347","0.4","2.4","0.00","0.00"
"08:59:57","67.6","64.7","90.2","30.06","347","0.6","2.4","0.00","0.00"
"09:04:57","67.6","64.9","91","30.06","347","0.6","2.4","0.00","0.00"
"09:09:56","67.7","64.9","90.8","30.06","347","1.2","3.6","0.00","0.00"
"09:14:56","67.8","65.3","91.6","30.06","347","0.4","2.4","0.00","0.00"
"09:19:59","68","65.5","91.7","30.06","347","0.2","1.2","0.00","0.00"
"09:24:58","68.2","65.6","91.4","30.06","347","0.6","2.4","0.00","0.00"
"09:29:57","68.4","65.8","91.6","30.06","347","0.4","2.4","0.00","0.00"
"09:34:56","68.6","66","91.3","30.06","346","0.5","2.4","0.00","0.00"
"09:39:56","68.8","65.9","90.3","30.06","346","1","3.6","0.00","0.00"
"09:44:59","69","65.7","89.3","30.07","150","0.1","2.4","0.00","0.00"
"09:49:57","69.2","65.8","89","30.07","139","0.9","2.4","0.00","0.00"
"09:54:56","69.4","65.7","88","30.07","40","1.8","6","0.00","0.00"
"09:59:59","69.5","65.6","87.4","30.07","359","1.5","7.2","0.00","0.00"
"10:04:59","69.7","65.9","87.9","30.07","348","1.5","7.2","0.00","0.00"
"10:09:58","69.9","66.1","87.5","30.07","345","0.8","5.8","0.00","0.00"
"10:14:58","70.2","65.6","85.4","30.07","21","1","6","0.00","0.00"
"10:19:57","70.5","64.3","80.8","30.07","44","1.9","7.2","0.00","0.00"
"10:24:59","70.6","63.6","78.6","30.07","349","1.9","7.2","0.00","0.00"
"10:29:58","70.9","63.2","76.8","30.07","325","1.8","10.8","0.00","0.00"
"10:34:56","71.4","63.6","76.4","30.07","350","2.5","8.1","0.00","0.00"
"10:39:59","72","63.5","74.8","30.07","12","2.3","8.4","0.00","0.00"
"10:44:57","72.3","63.1","72.8","30.07","289","2.6","7.2","0.00","0.00"
"10:49:56","72.4","63.2","72.8","30.07","337","2.9","10.8","0.00","0.00"
"10:54:59","72.3","62.5","71.3","30.07","1","2.7","7.2","0.00","0.00"
"10:59:57","72","61.8","70.5","30.08","347","1.7","9.6","0.00","0.00"
"11:04:56","71.7","61.8","70.9","30.08","9","2.9","9.2","0.00","0.00"
"11:09:59","71.3","61.9","72.1","30.08","27","2.3","7.2","0.00","0.00"
"11:14:58","71","62.3","73.9","30.08","336","2.5","8.4","0.00","0.00"
"11:19:56","70.7","62.3","74.7","30.08","311","2","7.2","0.00","0.00"
"11:24:59","70.5","62.6","76.2","30.08","318","1.3","4.8","0.00","0.00"
"11:29:57","70.2","62.3","76","30.08","344","1.3","7.2","0.00","0.00"
"11:34:59","69.9","61.7","75.3","30.08","29","2.1","7.2","0.00","0.00"
"11:39:58","69.7","61.4","74.9","30.08","12","2.6","7.2","0.00","0.00"
"11:44:57","69.5","61.5","75.6","30.08","1","2.1","7.2","0.00","0.00"
"11:49:59","69.3","61.3","75.8","30.08","354","2.5","7.2","0.00","0.00"
"11:54:58","69.2","61.2","75.8","30.08","340","3.4","9.6","0.00","0.00"
"11:59:59","69.1","61.3","76.2","30.09","337","2.2","6","0.00","0.00"
"12:04:59","69.1","61.7","77.1","30.09","346","1.5","6","0.00","0.00"
"12:09:58","69.3","61.9","77.6","30.09","13","0.9","3.6","0.00","0.00"
"12:14:57","69.4","61.8","76.7","30.09","349","1.2","4.8","0.00","0.00"
"12:19:59","69.6","62.2","77.4","30.08","350","1.4","6","0.00","0.00"
"12:24:58","69.7","62.2","77","30.08","343","0.7","3.6","0.00","0.00"
"12:29:56","69.9","62.5","77.3","30.08","341","0.6","3.6","0.00","0.00"
"12:34:58","69.9","62.6","77.7","30.08","357","1.7","4.8","0.00","0.00"
"12:39:57","69.7","62.4","77.5","30.08","1","2","4.8","0.00","0.00"
"12:44:56","69.6","62.4","78.2","30.08","343","2.2","6","0.00","0.00"
"12:49:58","69.4","62.1","77.9","30.08","332","2.1","6","0.00","0.00"
"12:54:58","69.3","62.3","78.6","30.08","340","2","6","0.00","0.00"
"12:59:57","69.3","62.7","79.5","30.08","358","2.7","7.2","0.00","0.00"
"13:04:58","69.5","63","79.9","30.08","12","2.2","7.2","0.00","0.00"
"13:09:58","69.5","63.1","80","30.08","339","2.5","6","0.00","0.00"
"13:14:57","69.5","62.9","79.4","30.08","341","3","8.4","0.00","0.00"
"13:19:59","69.4","62.6","78.9","30.08","341","2.1","7.2","0.00","0.00"
"13:24:58","69.2","62.5","79.1","30.08","1","1.2","4.8","0.00","0.00"
"13:29:57","69.3","62.9","79.9","30.08","20","0.8","2.4","0.00","0.00"
"13:34:59","69.4","63","80","30.08","2","1","4.8","0.00","0.00"
"13:39:59","69.5","62.9","79.5","30.08","347","2.4","6","0.00","0.00"
"13:44:59","69.4","62.8","79.5","30.08","329","1.6","4.8","0.00","0.00"
"13:49:59","69.4","62.8","79.5","30.08","331","2.4","10.8","0.00","0.00"
"13:54:56","69.4","62.5","78.8","30.08","349","3.2","9.6","0.00","0.00"
"13:59:58","69.2","62.4","79.2","30.08","348","2.1","8.1","0.00","0.00"
"14:04:58","69.1","62.6","79.7","30.08","348","3.1","8.4","0.00","0.00"
"14:09:57","68.9","62.6","80.4","30.08","344","2.6","7.2","0.00","0.00"
"14:14:56","68.8","62.7","81","30.08","0","2.2","7.2","0.00","0.00"
"14:19:58","68.6","62.6","81.2","30.07","336","1.9","6","0.00","0.00"
"14:24:58","68.5","62.8","82","30.07","341","2.8","6","0.00","0.00"
"14:29:56","68.3","62.6","82.2","30.08","343","2.3","6","0.00","0.00"
"14:34:59","68","62.6","82.8","30.08","345","2.6","6","0.00","0.00"
"14:39:58","67.8","62.6","83.4","30.08","340","2.2","4.8","0.00","0.00"
"14:44:57","67.6","62.6","83.9","30.08","345","2.2","10.8","0.00","0.00"
"14:49:59","67.5","62.7","84.7","30.08","355","0.8","6.9","0.00","0.00"
"14:54:59","67.5","62.6","84.5","30.08","347","1.5","4.8","0.00","0.00"
"14:59:57","67.6","63.2","85.8","30.08","343","0.6","4.6","0.00","0.00"
"15:04:57","67.6","63.5","86.6","30.08","343","0.3","3.5","0.00","0.00"
"15:09:56","67.5","63.4","86.8","30.08","336","1","7.2","0.00","0.00"
"15:14:59","67.2","63.4","87.4","30.08","332","0.5","2.4","0.00","0.00"
"15:19:58","67.1","63.5","88.3","30.08","331","0.7","4.8","0.00","0.00"
"15:24:57","67.1","63.7","89","30.08","332","0","0","0.00","0.00"
"15:29:56","66.9","63.5","89","30.08","331","0.1","1.2","0.00","0.00"
"15:34:59","66.5","63.4","89.6","30.08","332","0","1.2","0.00","0.00"
"15:39:58","66.4","63.7","91","30.08","332","0.4","2.4","0.00","0.00"
"15:44:57","66.3","63.7","91.4","30.08","333","0.4","2.4","0.00","0.00"
"15:49:59","66.1","63.7","92","30.08","333","0.2","2.3","0.00","0.00"
"15:54:58","66","63.8","92.9","30.08","338","0.5","2.4","0.01","0.01"
"15:59:56","65.8","63.7","93","30.08","342","0.2","1.2","0.01","0.01"
"16:04:56","65.8","63.8","93.3","30.08","2","0.6","3.6","0.01","0.01"
"16:09:59","65.8","64","94","30.08","5","0.8","3.6","0.01","0.01"
"16:14:58","65.7","63.8","93.6","30.08","356","2.4","6","0.01","0.01"
"16:19:57","65.6","63.5","93","30.08","352","1.8","7.2","0.01","0.01"
"16:24:56","65.7","63.8","93.5","30.08","8","1.9","6","0.02","0.02"
"16:29:58","65.7","63.5","92.7","30.08","358","2.9","10.8","0.02","0.02"
"16:34:56","65.6","63.2","92","30.08","345","2.5","7.2","0.02","0.02"
"16:39:56","65.4","63","92","30.08","347","1.2","4.8","0.03","0.03"
"16:44:59","65.3","63.1","92.6","30.08","351","2","7.2","0.03","0.03"
"16:49:57","65.2","63.1","93","30.08","356","2.1","4.8","0.03","0.03"
"16:54:56","65.1","63","93","30.08","0","0.4","3.5","0.03","0.03"
"16:59:58","65","62.9","93","30.08","360","0.9","3.6","0.03","0.02"
"17:04:58","64.8","62.7","93.2","30.08","355","2.4","4.8","0.04","0.03"
"17:09:57","64.6","62.7","93.5","30.08","354","1.8","6","0.04","0.03"
"17:14:56","64.4","62.5","93.5","30.08","350","1.4","4.8","0.04","0.03"
"17:19:58","64.3","62.5","94","30.08","355","0.8","3.6","0.04","0.03"
"17:24:57","64.3","62.5","94","30.08","355","1.1","3.6","0.04","0.03"
"17:29:56","64.2","62.5","94.2","30.08","354","0.3","2.3","0.04","0.02"
"17:34:59","64.2","62.7","95","30.08","349","0.4","2.4","0.04","0.02"
"17:39:59","64.1","62.6","95","30.08","345","0","0","0.04","0.02"
"17:44:58","64.1","62.6","95","30.08","346","0.5","3.6","0.04","0.01"
"17:49:56","64.1","62.6","95","30.08","346","1","2.4","0.05","0.02"
"17:54:56","64.1","62.6","95","30.08","346","0.1","1.2","0.05","0.02"
"17:59:58","64.1","62.6","95","30.08","346","0.1","2.4","0.06","0.03"
"18:04:58","64.2","62.7","95","30.07","346","0.4","2.4","0.06","0.03"
"18:09:58","64.4","63.1","95.7","30.07","346","0","0","0.06","0.02"
"18:14:57","64.5","63.2","95.7","30.08","346","0.4","2.4","0.06","0.02"
"18:19:59","64.6","63.1","95","30.08","347","1.2","4.8","0.06","0.02"
"18:24:58","64.6","63.1","95","30.08","347","1.4","3.6","0.06","0.02"
"18:29:56","64.6","63.1","95","30.08","347","1.7","3.6","0.06","0.02"
"18:34:58","64.7","63.2","95","30.08","340","1.5","3.6","0.06","0.02"
"18:39:58","64.7","63.2","95","30.08","353","1.5","6","0.06","0.02"
"18:44:57","64.9","63.4","95","30.08","353","1.4","3.6","0.06","0.02"
"18:49:59","65","63.5","95","30.07","349","1.9","4.8","0.06","0.02"
"18:54:57","65.1","63.6","95","30.07","346","1.8","4.8","0.06","0.01"
"18:59:59","65.1","63.6","95","30.08","348","1.3","3.6","0.06","0.01"
"19:04:59","65.1","63.3","94.1","30.08","350","1.9","4.8","0.06","0.00"
"19:09:58","65.2","63.7","94.9","30.08","350","0.5","3.5","0.06","0.00"
"19:14:58","65.2","63.4","94.1","30.08","350","1.3","4.8","0.06","0.00"
"19:19:56","65.1","63.3","94","30.08","351","1.4","3.6","0.06","0.00"
"19:24:59","65.1","63.3","94","30.08","351","0.4","2.4","0.06","0.00"
"19:29:58","65.1","63.3","94","30.08","351","0.3","2.3","0.06","0.00"
"19:34:56","65","63","93.3","30.08","351","0","1.2","0.06","0.00"
"19:39:56","64.9","63.1","94","30.08","351","0.2","1.2","0.06","0.00"
"19:44:59","64.7","62.9","94","30.08","351","0.4","2.4","0.06","0.00"
"19:49:58","64.5","62.7","94","30.08","351","0.7","2.4","0.06","0.00"
"19:54:57","64.4","62.6","94","30.08","352","0.1","3.6","0.06","0.00"
"19:59:58","64.3","62.5","94","30.08","355","1","3.5","0.06","0.00"
"20:04:56","64.2","62.4","94","30.08","355","0.3","1.2","0.06","0.00"
"20:09:58","64.1","62.5","94.6","30.08","332","0.6","2.4","0.06","0.00"
"20:14:59","64","62.4","94.6","30.09","264","0.9","3.6","0.06","0.00"
"20:19:57","63.8","62.3","95","30.09","264","0.5","3.6","0.06","0.00"
"20:24:57","63.6","62.1","95","30.09","264","0.1","1.2","0.06","0.00"
"20:29:56","63.5","62","95","30.10","267","1","3.6","0.06","0.00"
"20:34:58","63.3","61.8","95","30.10","252","0.8","3.6","0.06","0.00"
"20:39:58","63.2","61.7","95.1","30.10","262","1.5","4.8","0.06","0.00"
"20:44:56","63.1","61.9","96","30.10","293","1.1","4.6","0.06","0.00"
"20:49:59","63","61.8","96","30.10","289","1.4","3.6","0.06","0.00"
"20:54:58","62.9","61.7","96","30.10","287","0.6","3.5","0.06","0.00"
"20:59:57","62.7","61.5","96","30.10","287","0.6","2.4","0.06","0.00"
"21:04:57","62.7","61.5","96","30.10","287","0.1","1.2","0.06","0.00"
"21:09:57","62.7","61.5","96","30.10","287","0.5","2.4","0.06","0.00"
"21:14:56","62.7","61.5","96","30.11","287","0","1.2","0.06","0.00"
"21:19:59","62.6","61.4","96","30.11","287","0.1","2.4","0.06","0.00"
"21:24:59","62.6","61.4","96","30.11","287","0","1.2","0.06","0.00"
"21:29:57","62.6","61.4","96","30.12","287","0.1","2.4","0.06","0.00"
"21:34:56","62.5","61.3","96","30.12","287","0.6","2.4","0.06","0.00"
"21:39:56","62.5","61.3","96","30.12","287","0.1","2.3","0.06","0.00"
"21:44:59","62.5","61.3","96","30.13","287","0.1","2.4","0.06","0.00"
"21:49:58","62.4","61.2","96","30.13","287","0.2","2.4","0.06","0.00"
"21:54:58","62.4","61.2","96","30.13","287","0","0","0.06","0.00"
"21:59:57","62.4","61.2","96","30.13","287","0.1","1.2","0.06","0.00"
"22:04:57","62.3","61.1","96","30.12","287","0.6","2.4","0.06","0.00"
"22:09:57","62.3","61.1","96","30.12","287","0.5","2.4","0.06","0.00"
"22:14:56","62.3","61.1","96","30.12","288","0.6","2.4","0.06","0.00"
"22:19:59","62.3","61.1","96","30.12","288","0.7","2.4","0.06","0.00"
"22:24:58","62.3","61","95.5","30.12","288","0.4","3.6","0.06","0.00"
"22:29:57","62.2","60.8","95","30.12","290","0.6","3.5","0.06","0.00"
"22:34:59","62.2","60.8","95.2","30.12","326","1.2","4.8","0.06","0.00"
"22:39:56","62","60.6","95","30.12","321","0.2","2.4","0.06","0.00"
"22:44:59","62","60.7","95.3","30.12","321","0.4","2.4","0.06","0.00"
"22:49:58","61.9","60.7","96","30.12","321","0.2","1.2","0.06","0.00"
"22:54:57","61.8","60.6","96","30.12","321","0.1","1.2","0.06","0.00"
"22:59:57","61.7","60.5","96","30.12","321","0","0","0.06","0.00"
"23:04:57","61.6","60.4","96","30.12","321","0.5","2.4","0.06","0.00"
"23:09:57","61.5","60.3","96","30.12","321","0.1","1.2","0.06","0.00"
"23:14:57","61.3","60.2","96","30.12","321","0.2","1.2","0.06","0.00"
"23:19:56","61.2","60.1","96","30.12","321","0","0","0.06","0.00"
"23:24:56","61.1","60","96","30.12","321","0.2","1.2","0.06","0.00"
"23:29:59","61","59.9","96","30.12","321","0","1.2","0.06","0.00"
"23:34:58","60.9","59.8","96","30.12","321","0","0","0.06","0.00"
"23:39:59","60.8","59.7","96","30.12","321","0","0","0.06","0.00"
"23:44:58","60.7","59.6","96","30.12","321","0","0","0.06","0.00"
"23:49:57","60.5","59.4","96","30.12","321","0","0","0.06","0.00"
"23:54:57","60.4","59.3","96","30.12","321","0","0","0.06","0.00"
